This is the latest recevied weather packets stored in our database for station/object KQ7A. If no packets are shown the sender has not sent any weather packets the latest 10 day(s).
| Time | Temp. | Humidity | Pressure | Rain* | Wind** | Luminosity | Snow |
|---|---|---|---|---|---|---|---|
| 1777975740 | 6.11° C | 97% | 1012.6 hPa | 1.78 mm | - | 0 W/m² | - |
| 1777975436 | 6.11° C | 97% | 1012.8 hPa | 1.78 mm | - | 0 W/m² | - |
| 1777975132 | 6.11° C | 97% | 1012.5 hPa | 1.78 mm | - | 0 W/m² | - |
| 1777974830 | 6.11° C | 97% | 1012.6 hPa | 1.78 mm | - | 0 W/m² | - |
| 1777974525 | 6.11° C | 97% | 1013.3 hPa | 1.27 mm | - | 0 W/m² | - |
| 1777974222 | 6.11° C | 97% | 1013.1 hPa | 1.27 mm | - | 0 W/m² | - |
| 1777973918 | 6.11° C | 97% | 1013.1 hPa | 1.78 mm | - | 0 W/m² | - |
| 1777973616 | 6.11° C | 96% | 1012.5 hPa | 1.78 mm | - | 0 W/m² | - |
| 1777973313 | 6.11° C | 96% | 1012.5 hPa | 1.27 mm | - | 0 W/m² | - |
| 1777973011 | 6.11° C | 96% | 1012.4 hPa | 1.27 mm | - | 0 W/m² | - |
| 1777972708 | 6.11° C | 96% | 1012.8 hPa | 1.78 mm | - | 0 W/m² | - |
| 1777972406 | 6.67° C | 96% | 1013.1 hPa | 1.78 mm | - | 0 W/m² | - |
| 1777972104 | 6.67° C | 96% | 1013.1 hPa | 0 mm | - | 0 W/m² | - |
| 1777971802 | 6.67° C | 96% | 1013.1 hPa | 1.27 mm | - | 0 W/m² | - |
| 1777971498 | 6.67° C | 96% | 1013.3 hPa | 1.27 mm | - | 0 W/m² | - |
| 1777971197 | 6.11° C | 96% | 1013.2 hPa | 0 mm | - | 0 W/m² | - |
| 1777970894 | 6.11° C | 96% | 1013.2 hPa | 0 mm | - | 0 W/m² | - |
| 1777970592 | 6.11° C | 96% | 1013 hPa | 0 mm | - | 0 W/m² | - |
| 1777970289 | 6.11° C | 96% | 1012.9 hPa | 0 mm | - | 0 W/m² | - |
| 1777969986 | 6.11° C | 96% | 1013.1 hPa | 0 mm | - | 0 W/m² | - |
| 1777969682 | 6.11° C | 96% | 1012.9 hPa | 0 mm | - | 0 W/m² | - |
| 1777969379 | 6.67° C | 96% | 1012.8 hPa | 1.78 mm | - | 0 W/m² | - |
| 1777969075 | 6.11° C | 96% | 1012.8 hPa | 1.78 mm | - | 0 W/m² | - |
| 1777968773 | 6.67° C | 96% | 1013 hPa | 0 mm | - | 0 W/m² | - |
| 1777968469 | 6.67° C | 96% | 1013 hPa | 0 mm | - | 0 W/m² | - |
* Rain latest hour (hover to see other rain measurements)
** Current wind speed in m/s (hover to see current wind gust speed)